Farmington, NM

12:44 AM MST on December 04, 2016 (GMT -0700)
Four Corners Regional

Weather History for KFMN - September, 2012

Change the Weather History Date:

Friday, September 7, 2012

  Actual Average Record
Temperature  
Mean Temperature 74 °F -  
Max Temperature 91 °F 82 °F 94 °F (1979)
Min Temperature 57 °F 52 °F 46 °F (1992)
Cooling Degree Days 9    
Growing Degree Days 24 (Base 50)    
Moisture  
Dew Point 35 °F    
Average Humidity 22    
Maximum Humidity 44    
Minimum Humidity 6    
Precipitation  
Precipitation 0.00 in - - ()
Sea Level Pressure  
Sea Level Pressure 29.94 in    
Wind  
Wind Speed 7 mph (NW)    
Max Wind Speed 21 mph    
Max Gust Speed 30 mph    
Visibility 10 miles    
Events      
Averages and records for this station are not official NWS values.
T = Trace of Precipitation, MM = Missing Value Source: NWS Daily Summary

Daily Weather History Graph

Daily Weather History Graph

Search for Another Location

Airport or City:

Trip Planner

Search our weather history database for the weather conditions in past years. The results will help you decide how hot, cold, wet, or windy it might be!

Date:

Astronomy

Sep. 07, 2012 Rise Set
Actual Time 6:49 AM MDT 7:31 PM MDT
Civil Twilight 6:23 AM MDT 7:57 PM MDT
Nautical Twilight 5:52 AM MDT 8:28 PM MDT
Astronomical Twilight 5:20 AM MDT 9:00 PM MDT
Moon 11:41 PM MDT (9/7) 1:32 PM MDT (9/7)
Length of Visible Light 13h 34m
Length of Day
12h 42m
Waning Gibbous, 58% of the Moon is Illuminated
Sep 7
Waning Gibbous
Sep 8
Last Quarter
Sep 15
New
Sep 22
First Quarter
Sep 29
Full

Hourly Weather History & Observations

Time (MDT) Temp. Dew Point Humidity Pressure Visibility Wind Dir Wind Speed Gust Speed Precip Events Conditions
12:53 AM 66.0 °F 28.0 °F 24% 29.91 in 10.0 mi North 6.9 mph - N/A   Clear
1:53 AM 66.0 °F 28.9 °F 25% 29.90 in 10.0 mi Calm Calm - N/A   Clear
2:53 AM 62.1 °F 30.9 °F 31% 29.91 in 10.0 mi Calm Calm - N/A   Clear
3:53 AM 64.9 °F 30.9 °F 28% 29.91 in 10.0 mi NNE 4.6 mph - N/A   Clear
4:53 AM 63.0 °F 30.9 °F 30% 29.91 in 10.0 mi Calm Calm - N/A   Clear
5:53 AM 62.1 °F 39.9 °F 44% 29.94 in 10.0 mi Calm Calm - N/A   Clear
6:53 AM 61.0 °F 37.9 °F 42% 29.97 in 10.0 mi WSW 3.5 mph - N/A   Clear
7:53 AM 64.9 °F 36.0 °F 34% 29.99 in 10.0 mi Calm Calm - N/A   Scattered Clouds
8:53 AM 68.0 °F 42.1 °F 39% 30.01 in 10.0 mi Calm Calm - N/A   Clear
9:53 AM 73.0 °F 43.0 °F 34% 30.01 in 10.0 mi WNW 3.5 mph - N/A   Clear
10:53 AM 82.0 °F 45.0 °F 27% 29.99 in 10.0 mi West 9.2 mph - N/A   Clear
11:53 AM 84.9 °F 41.0 °F 21% 29.98 in 10.0 mi West 15.0 mph 23.0 mph N/A   Clear
12:53 PM 87.1 °F 39.0 °F 18% 29.95 in 10.0 mi West 13.8 mph 24.2 mph N/A   Clear
1:53 PM 89.1 °F 41.0 °F 19% 29.92 in 10.0 mi West 16.1 mph 27.6 mph N/A   Clear
2:53 PM 90.0 °F 39.0 °F 17% 29.91 in 10.0 mi West 19.6 mph 29.9 mph N/A   Clear
3:53 PM 91.0 °F 33.1 °F 13% 29.88 in 10.0 mi WNW 20.7 mph 27.6 mph N/A   Clear
4:53 PM 90.0 °F 30.9 °F 12% 29.88 in 10.0 mi NW 17.3 mph 26.5 mph N/A   Clear
5:53 PM 89.1 °F 30.9 °F 12% 29.89 in 10.0 mi NW 18.4 mph 26.5 mph N/A   Clear
6:53 PM 86.0 °F 28.9 °F 13% 29.91 in 10.0 mi NW 15.0 mph 24.2 mph N/A   Clear
7:53 PM 82.0 °F 30.0 °F 15% 29.94 in 10.0 mi NNW 15.0 mph 19.6 mph N/A   Clear
8:53 PM 79.0 °F 27.0 °F 15% 29.96 in 10.0 mi WNW 10.4 mph - N/A   Clear
9:53 PM 77.0 °F 28.9 °F 17% 29.97 in 10.0 mi NW 10.4 mph - N/A   Clear
10:53 PM 72.0 °F 32.0 °F 23% 29.98 in 10.0 mi North 4.6 mph - N/A   Clear
11:53 PM 68.0 °F 32.0 °F 26% 29.98 in 10.0 mi NNW 9.2 mph - N/A   Clear